Wind_Gust
20 19 19 19 19 18 17 18 18 19 19 20 20 20 19 19 19 19 18 18 18 18 18 18 18 19 19 19 18 18 20 23 21 20 20 16 10 6 7 7 10 14 13 21 21 20 18 16 18 16 21 21 23 24 26 28 26 25 34 34 37 34 34 30 37 35 29 36 29 31 31 29 29 28 31 25 24 23 24 25 22 21 23 19 21 25 24 22
20 20 20 20 19 18 18 19 19 20 21 21 20 20 20 20 20 20 19 19 19 19 18 17 18 18 19 18 18 15 21 22 23 18 21 12 4 4 8 8 12 14 17 24 22 18 17 16 16 15 20 24 17 24 20 31 25 29 29 33 35 31 34 30 32 31 35 33 30 31 29 26 24 22 24 29 24 25 27 31 28 28 25 24 19 28 23 21
20 20 21 20 20 19 19 20 20 20 21 21 20 21 21 21 21 20 19 19 18 18 17 17 16 17 18 17 16 15 21 24 22 20 16 8 4 6 7 11 12 14 20 21 23 17 17 19 20 16 20 25 21 22 21 29 23 26 28 32 32 26 29 28 29 32 33 31 33 32 32 22 20 30 26 30 26 27 29 28 24 29 28 25 21 17 24 20
21 21 21 20 20 20 20 20 20 21 21 21 22 21 21 21 21 21 20 20 18 17 16 16 16 16 17 17 15 24 20 24 20 18 18 9 6 7 9 10 13 18 23 25 23 18 13 14 15 18 21 23 20 21 21 21 24 21 30 32 31 26 30 31 34 35 38 37 36 33 24 27 21 22 27 27 33 30 31 32 31 27 26 25 22 26 25 18
23 22 21 20 21 20 20 20 21 21 21 22 22 22 22 21 22 21 20 19 19 18 16 16 14 15 17 16 16 20 18 23 20 16 16 8 7 7 10 12 13 21 21 23 19 19 16 17 17 16 20 25 22 19 24 25 23 25 25 23 25 28 31 29 30 29 29 27 27 24 27 30 25 29 28 28 30 28 28 26 32 32 31 28 20 26 26 21
23 23 22 22 22 21 21 21 21 21 21 22 22 22 22 22 22 21 20 19 19 18 17 16 14 13 15 13 22 19 21 15 18 18 9 6 8 8 10 11 16 22 21 22 24 13 16 17 16 19 20 21 21 25 21 24 15 26 23 26 27 28 28 22 24 23 26 30 25 24 25 28 30 33 32 32 35 31 28 28 31 28 25 23 25 18 26 23
23 23 23 23 22 21 22 22 21 21 22 22 22 22 22 23 21 21 20 19 19 18 18 16 16 15 14 15 23 20 23 24 14 18 11 10 9 8 12 13 16 22 22 27 18 20 11 16 16 17 20 19 21 21 16 16 15 22 33 26 28 27 20 20 23 22 22 20 25 26 24 28 25 29 26 32 29 31 31 29 27 29 27 23 22 20 18 18
23 23 23 23 22 22 22 22 21 22 22 22 22 22 23 23 22 20 20 19 18 18 17 16 15 15 13 20 20 22 23 20 16 19 13 12 16 18 15 18 19 19 18 12 14 15 13 16 16 16 21 22 21 17 15 18 18 24 29 25 27 22 16 19 20 19 19 20 19 20 25 25 25 30 26 28 28 29 29 29 31 32 30 25 23 22 18 15
24 23 24 23 23 23 22 22 23 23 22 22 22 23 23 22 20 20 19 18 18 18 16 15 14 11 8 16 22 24 20 17 14 11 21 20 17 16 18 25 22 18 11 13 10 14 20 14 14 15 19 17 17 19 16 19 26 25 24 23 20 18 16 17 18 18 18 20 17 20 22 23 24 24 29 26 28 27 26 25 23 24 27 26 22 23 20 19
25 24 24 24 23 23 23 23 22 22 22 23 22 23 23 21 20 18 18 17 17 17 16 14 14 10 17 22 22 23 18 13 11 12 11 10 10 12 16 16 13 16 19 13 17 14 15 14 15 14 16 22 17 19 15 17 22 19 19 18 18 19 20 18 20 18 18 21 18 23 21 23 22 23 29 22 25 25 26 25 23 24 24 23 22 22 19 19
25 25 24 24 24 23 23 23 23 23 22 22 22 22 22 21 19 18 16 16 17 16 15 14 11 14 21 25 29 21 13 15 12 12 11 10 14 14 13 11 10 17 15 12 15 12 12 16 13 18 20 19 13 17 17 19 17 18 19 19 20 21 21 21 20 18 18 24 23 23 23 21 25 26 27 23 22 21 18 20 20 22 22 23 22 23 22 21
26 25 25 25 24 24 24 24 24 23 23 23 22 21 21 20 18 16 16 15 16 15 14 14 11 19 22 28 24 20 12 10 11 13 11 10 13 11 10 10 12 15 14 18 12 10 12 16 14 17 23 16 22 15 21 12 15 16 16 23 21 22 28 21 23 21 18 23 19 15 21 26 26 28 24 29 22 15 13 18 20 21 21 21 20 21 20 20
26 26 26 26 25 25 24 24 24 24 23 22 21 20 19 18 17 15 14 15 13 15 13 10 11 20 21 22 19 13 14 11 13 12 13 10 15 15 10 8 11 11 14 16 16 12 10 15 14 19 18 20 17 24 19 17 17 18 21 23 23 24 26 22 15 18 17 15 12 14 28 27 31 24 25 17 22 15 17 20 24 25 26 26 21 18 17 16
27 27 27 26 26 26 26 25 25 24 23 22 21 20 18 17 16 15 14 14 17 15 11 9 17 21 21 21 16 13 9 16 13 19 15 14 18 17 13 12 10 13 10 16 15 15 15 14 16 19 18 19 22 16 20 20 18 25 20 20 25 22 24 23 19 17 21 19 15 15 27 27 29 28 18 12 14 17 18 16 16 17 16 15 16 17 20 19
28 27 27 27 27 27 27 27 25 24 23 22 21 20 17 16 14 15 15 14 16 16 12 10 20 18 22 20 13 13 6 17 17 17 14 17 14 17 14 11 14 11 13 13 17 15 14 14 18 21 25 18 18 20 20 21 21 24 23 23 22 25 24 17 17 14 22 24 16 17 24 21 20 18 17 13 14 12 15 15 14 15 16 15 16 19 21 21
28 28 27 27 27 28 27 27 25 23 23 21 22 21 18 13 12 12 14 14 18 11 17 17 21 22 27 18 19 12 21 22 17 15 13 17 13 16 14 14 13 14 14 15 13 14 16 17 22 19 25 18 22 22 22 25 23 23 21 17 20 17 19 23 23 14 16 22 15 18 27 22 13 14 14 12 13 16 16 16 16 16 16 16 19 19 18 17
30 29 28 28 27 28 28 27 24 24 22 23 21 20 13 12 13 13 14 14 18 17 16 20 21 19 22 24 17 20 19 14 14 16 12 11 13 14 16 16 18 16 17 14 15 15 17 21 17 23 17 24 21 21 21 17 18 21 21 21 16 18 18 21 22 20 17 17 20 18 24 19 20 22 20 19 14 15 18 18 17 18 20 19 17 18 19 17
30 30 29 29 28 28 28 27 26 23 23 25 20 16 19 9 9 13 18 15 21 21 19 24 23 21 26 18 17 17 17 16 13 14 13 13 12 13 14 18 11 17 16 20 18 22 19 25 18 22 19 20 16 19 19 20 21 16 16 15 18 18 17 20 23 21 15 14 19 19 23 22 22 23 24 17 15 17 18 18 18 18 18 18 19 19 17 17
31 30 29 29 29 28 28 28 26 22 22 26 27 18 15 13 19 20 22 20 20 21 21 19 22 20 21 17 12 14 13 14 13 18 20 20 14 14 15 16 15 17 23 22 24 22 22 22 18 19 19 21 22 17 20 21 20 21 20 21 20 21 21 20 16 17 19 20 21 22 26 23 23 25 23 21 18 19 19 18 18 20 21 23 25 23 19 17
31 31 30 29 28 28 27 28 26 23 19 21 21 16 15 16 18 18 24 23 25 22 20 17 16 15 17 12 15 17 13 13 24 19 16 14 21 19 21 19 19 22 22 24 15 23 14 21 21 18 23 21 17 15 18 19 19 20 21 21 23 22 20 18 19 21 21 20 23 25 25 24 24 21 22 19 20 22 20 18 19 18 17 18 22 23 23 18
31 32 30 30 29 29 27 28 26 24 21 21 21 19 19 24 22 19 22 21 19 11 18 16 15 17 17 17 14 18 19 21 17 14 16 17 24 22 24 22 21 27 26 18 20 16 19 21 18 14 14 16 17 17 17 19 20 21 22 21 24 22 22 17 20 19 20 20 20 20 22 21 21 20 20 21 19 19 17 14 11 13 15 17 15 16 16 16
31 31 31 31 30 29 28 26 27 24 25 20 19 22 18 17 15 17 19 26 20 16 14 13 12 19 12 11 12 13 16 21 23 16 17 21 14 23 17 22 18 23 14 17 21 22 20 19 20 20 15 13 15 16 17 18 20 20 24 23 23 22 26 25 23 19 21 18 23 22 23 23 21 21 20 22 19 15 12 13 14 13 14 15 17 17 17 18
30 32 31 31 29 28 27 27 25 25 23 16 15 16 20 17 14 13 15 25 31 20 18 17 20 14 13 11 15 15 20 20 22 20 22 19 19 19 18 21 19 19 23 19 22 17 23 22 21 15 12 14 16 16 17 17 19 21 21 23 24 20 26 21 23 23 17 25 22 20 23 24 23 20 17 13 15 14 13 12 12 12 14 16 16 17 18 19
31 31 31 29 30 26 28 26 26 20 16 15 17 16 15 15 15 16 19 24 26 21 22 17 13 14 15 16 19 18 19 18 19 16 19 19 18 18 25 18 18 20 22 18 17 23 24 16 14 13 14 15 18 17 17 20 21 18 20 21 23 20 22 23 22 22 22 25 26 25 27 28 22 19 20 20 12 16 15 16 14 15 14 15 15 17 18 19
30 31 30 30 29 28 25 26 14 12 11 17 17 17 16 13 14 13 17 27 29 32 16 17 16 15 17 13 16 21 13 21 22 22 19 16 19 21 19 20 21 21 21 15 16 20 19 17 12 16 14 15 18 21 19 17 21 20 16 20 18 17 19 21 19 21 24 23 19 22 29 22 24 16 22 22 20 19 15 15 15 17 18 19 19 20 20 20
30 31 30 29 29 29 25 14 12 19 18 13 17 16 17 14 14 14 18 24 23 25 23 22 14 16 18 17 16 16 17 27 16 14 14 16 16 21 21 24 19 21 20 16 21 22 17 12 11 15 18 15 16 19 12 16 21 21 17 15 20 21 21 20 22 24 25 24 21 25 24 20 26 23 20 22 19 18 16 16 18 19 22 22 22 23 23 23
30 30 28 27 25 27 18 13 18 23 14 14 17 15 15 14 13 13 18 20 22 25 18 24 19 22 21 14 19 17 25 18 15 13 14 18 19 10 22 25 25 23 16 16 21 21 12 13 12 13 17 21 19 22 17 15 21 20 14 17 18 20 22 22 23 23 26 22 23 25 27 26 22 21 21 23 20 17 16 18 19 22 23 23 23 23 22 24
29 28 27 25 23 13 15 21 22 17 17 14 15 15 14 12 11 12 17 16 15 16 15 21 17 17 20 12 13 20 21 20 25 20 14 11 17 21 22 19 23 20 12 17 18 18 17 16 13 16 15 20 18 17 16 13 21 22 18 17 19 20 21 22 23 24 24 23 23 22 25 27 22 24 19 18 17 17 18 20 21 22 24 24 24 25 24 24
29 28 26 25 28 23 16 16 17 16 16 14 14 15 14 10 15 18 18 16 20 18 16 15 15 15 17 16 18 14 16 13 20 17 13 14 16 20 23 16 19 15 16 18 20 17 18 16 14 15 18 17 15 14 14 13 20 14 17 19 22 21 23 22 24 21 21 23 20 19 19 24 17 24 22 21 20 18 19 19 21 23 26 26 27 25 25 24
31 28 25 23 25 14 13 13 18 12 14 14 13 12 9 13 17 18 15 13 13 13 13 15 17 16 17 19 17 19 18 12 13 15 11 20 19 18 21 15 18 19 21 17 23 18 19 12 12 19 17 16 16 16 14 13 17 18 21 24 26 26 26 25 25 25 21 21 18 21 23 24 20 19 18 18 20 18 20 19 24 28 30 31 30 28 28 27
29 27 22 18 18 18 19 18 13 13 12 12 14 13 14 17 20 19 14 13 16 18 18 13 15 13 15 15 20 17 16 13 14 17 21 23 25 19 16 22 19 21 20 21 18 14 16 17 20 18 11 17 16 22 18 18 18 19 25 25 25 19 21 20 21 21 22 21 17 22 27 21 23 21 19 22 18 20 22 25 28 29 30 32 29 31 30 29
31 27 22 19 20 21 17 17 18 14 14 11 11 14 18 18 24 20 14 18 19 16 15 19 10 15 16 9 15 16 18 16 12 15 21 18 16 22 24 19 13 19 21 18 18 18 21 19 13 15 12 15 20 22 17 16 19 22 21 22 21 16 21 20 23 18 19 19 17 22 24 23 21 23 20 20 19 22 20 21 23 24 26 26 28 29 30 31
34 27 27 24 16 16 21 17 13 12 9 11 13 17 20 13 15 17 19 14 14 16 16 13 15 14 14 19 16 14 11 15 16 16 12 16 23 17 14 19 15 16 15 12 16 17 19 15 18 16 14 16 17 20 17 17 15 18 20 21 22 19 14 16 18 19 22 20 22 24 21 20 25 21 15 18 19 21 19 20 23 24 26 26 29 30 30 29
35 29 22 11 18 20 16 11 10 11 13 11 17 17 17 16 16 11 18 17 16 10 10 10 14 12 15 21 16 16 20 17 13 15 16 16 19 15 16 15 16 17 21 20 27 17 17 19 22 18 17 15 18 16 16 19 20 18 18 22 20 20 24 19 16 16 17 16 20 27 23 19 21 20 15 16 20 22 21 21 22 22 25 25 31 33 30 28
40 29 17 17 18 21 18 16 9 10 12 16 18 20 15 20 19 20 16 17 15 13 18 13 16 19 15 20 11 11 17 15 13 14 22 20 17 17 15 15 12 17 19 20 14 20 17 22 19 13 13 12 16 12 14 18 21 21 21 19 20 18 15 21 20 19 19 19 18 18 17 13 19 23 15 16 20 21 25 25 26 28 31 32 34 33 32 31
27 14 16 17 18 14 16 14 10 11 15 17 20 19 19 19 17 17 16 17 18 16 19 22 18 21 18 19 19 17 20 19 13 17 16 17 17 19 17 16 14 21 21 18 17 22 18 16 15 12 14 15 14 12 16 20 17 18 20 17 16 16 18 16 15 14 13 16 19 16 18 20 23 20 16 21 23 24 27 29 30 30 29 30 32 33 31 33
19 20 17 16 17 13 10 12 13 14 15 19 19 19 18 18 16 13 12 14 16 14 17 18 14 17 15 16 18 15 16 14 19 18 19 16 17 14 13 15 13 13 15 20 20 19 18 19 17 20 15 13 12 13 16 16 19 24 19 16 21 13 19 17 16 12 17 20 16 21 21 18 19 19 17 23 27 27 29 30 29 28 28 30 32 32 33 34
23 19 19 20 14 10 12 13 13 15 19 20 18 14 22 22 17 12 10 12 12 14 18 17 15 11 15 14 16 15 14 23 19 16 18 15 14 15 11 18 16 15 14 14 18 16 17 22 19 15 15 15 12 15 19 17 17 19 19 14 18 13 15 14 15 16 16 18 17 18 20 21 21 17 23 24 27 28 29 29 28 29 30 31 32 33 33 33
21 21 21 14 13 9 13 13 13 17 20 23 20 22 16 17 11 12 12 12 10 15 19 12 15 12 12 16 16 15 16 18 15 17 16 15 14 14 20 26 14 16 12 14 20 18 18 20 21 16 15 11 16 18 17 12 17 18 14 17 12 16 16 14 10 19 20 20 15 18 22 18 20 21 19 20 21 23 25 27 27 27 27 31 33 34 36 35
19 23 11 10 11 8 14 13 17 20 21 20 19 19 14 20 15 9 11 12 13 14 12 14 10 17 13 15 16 19 17 16 15 17 15 13 17 19 14 14 19 17 13 13 20 13 21 12 20 17 14 15 19 15 17 16 15 14 15 16 13 17 12 19 18 21 18 20 19 22 23 17 18 17 18 18 21 22 23 26 26 26 27 28 30 32 34 35
18 22 16 10 14 11 14 15 20 19 21 24 22 16 17 17 16 10 9 9 17 10 18 17 17 17 15 18 16 15 17 16 17 18 13 18 13 14 14 12 15 17 17 18 20 17 20 20 21 19 21 20 18 19 18 17 14 15 16 16 17 16 16 15 18 14 20 22 21 21 26 18 19 14 14 17 20 22 23 25 25 25 26 27 29 28 29 32
16 22 14 11 13 11 15 19 19 16 20 20 17 18 14 9 16 13 11 14 13 18 15 15 15 15 17 16 15 17 18 18 17 16 12 16 18 15 15 10 12 13 19 18 20 21 16 19 21 21 22 21 18 14 13 13 14 17 17 17 13 13 16 16 19 14 19 21 21 24 26 14 16 14 17 17 20 22 22 22 24 23 24 25 28 28 27 26
16 21 17 11 12 13 17 21 20 16 15 17 17 19 18 15 14 17 15 9 14 12 15 14 12 14 12 15 13 16 16 23 17 19 16 15 17 19 24 16 12 18 15 21 20 18 13 18 19 24 22 22 23 15 12 11 17 19 17 18 16 15 13 18 19 19 22 21 20 17 21 17 10 12 14 16 18 20 21 20 23 23 22 25 26 27 28 28
21 23 21 13 10 11 17 15 17 16 21 14 12 16 13 16 18 18 18 10 15 11 14 14 14 13 16 11 16 18 14 17 11 14 16 11 18 21 23 15 13 20 16 13 16 16 15 12 15 18 22 20 14 12 16 13 16 20 21 17 16 17 16 16 20 18 21 18 17 21 24 13 16 14 14 16 20 21 22 23 22 23 24 26 28 28 29 30
27 25 24 17 11 12 17 15 18 16 20 19 20 17 18 16 13 15 16 17 11 14 14 13 12 13 17 12 19 17 17 18 26 18 20 16 21 16 12 17 12 19 14 14 11 16 18 17 18 21 20 18 18 16 11 11 16 19 17 20 20 19 19 18 17 17 20 16 17 21 26 19 19 16 17 18 21 22 23 23 23 22 22 27 28 29 29 29
16 18 17 17 17 10 14 9 10 16 19 17 13 19 18 20 19 13 15 17 18 13 15 16 14 15 17 15 17 17 18 15 18 19 17 18 19 18 14 14 14 18 15 13 14 18 21 19 20 20 22 24 21 22 16 17 20 24 20 19 21 18 18 17 20 22 23 17 21 20 19 23 25 22 22 24 23 24 24 24 26 24 24 26 26 28 28 27
21 20 16 17 18 17 15 11 14 12 15 15 17 17 18 19 21 21 11 22 15 11 15 13 15 16 11 13 15 18 17 19 15 19 20 20 17 24 17 22 21 18 21 17 15 20 21 23 19 12 13 25 25 25 23 20 23 24 23 23 21 20 19 20 21 26 17 23 26 18 13 21 24 23 21 22 24 24 24 24 25 24 24 27 28 28 24 29
20 16 20 14 12 18 16 10 15 14 14 13 19 17 17 18 18 19 18 16 17 16 13 10 13 13 15 15 18 16 16 18 18 17 16 17 19 17 25 17 17 16 18 17 13 18 18 20 17 17 21 22 23 24 22 23 21 24 25 25 24 22 21 23 24 25 21 23 27 23 22 23 24 23 21 21 22 23 23 24 23 22 22 25 28 29 29 30
22 23 21 18 17 17 18 14 11 13 16 14 19 15 17 15 17 18 15 19 18 16 12 12 15 16 15 14 16 19 17 18 15 16 17 17 15 18 21 19 18 17 14 13 16 14 17 22 19 18 22 23 23 23 21 23 23 23 24 25 23 23 23 23 25 24 25 25 25 26 25 26 23 21 19 20 20 21 23 23 23 22 22 25 29 28 29 31
19 20 19 22 19 22 20 14 13 13 17 10 11 11 17 15 16 15 16 16 17 16 15 17 15 15 15 15 16 21 18 18 19 23 17 17 20 18 20 20 21 19 20 16 12 11 15 15 15 19 23 24 22 21 21 20 22 27 24 24 24 24 24 24 25 24 24 26 25 24 24 26 19 13 18 19 19 21 22 23 24 22 21 24 27 29 30 31
18 16 17 22 24 19 19 14 16 17 18 15 16 15 15 13 15 14 18 17 19 20 14 17 16 18 16 16 18 20 19 21 21 22 21 21 24 18 17 16 16 21 19 19 18 15 17 21 21 23 23 24 21 20 15 18 21 24 25 25 25 25 26 24 29 21 22 23 22 21 23 22 17 17 19 20 21 22 23 23 24 22 21 23 26 30 30 31
18 15 13 17 22 14 23 17 16 18 17 15 12 13 15 15 12 14 18 18 20 16 13 15 15 18 18 17 18 19 19 19 21 22 22 23 24 23 24 26 24 24 22 22 16 24 19 22 20 19 23 23 22 19 20 19 24 25 22 23 24 22 23 23 23 20 22 19 21 19 19 20 20 20 24 23 23 24 24 24 24 21 21 23 26 28 29 30
Wind_Speed
16 15 15 15 15 14 14 14 15 15 15 16 16 16 15 15 15 14 14 14 15 15 14 15 15 15 15 15 14 14 16 11 11 10 4 4 3 3 5 5 8 10 7 10 12 10 10 8 9 8 9 8 8 10 9 12 10 10 10 11 14 13 15 12 15 14 15 15 14 17 14 15 14 11 12 7 9 10 13 15 9 7 12 4 9 16 12 14
16 16 16 16 15 15 15 15 15 16 17 17 16 16 15 15 15 16 16 15 15 15 15 14 14 15 15 13 13 12 12 12 12 1 8 4 2 1 6 6 10 10 7 11 13 10 9 8 9 8 8 8 8 10 9 9 11 10 9 11 13 11 12 14 17 19 15 16 17 17 17 17 13 7 9 11 11 13 14 13 11 14 10 13 11 19 14 13
16 16 16 16 15 15 15 16 16 16 17 17 16 16 15 15 16 16 15 15 15 15 14 13 13 14 15 14 11 12 10 10 12 4 6 1 3 4 5 9 10 10 7 11 14 10 8 9 12 4 7 9 7 10 10 7 8 10 10 12 12 12 14 16 17 17 14 17 19 15 20 14 12 9 6 9 9 12 14 8 12 13 14 16 11 12 14 12
17 17 16 16 16 16 16 16 16 17 17 17 18 17 17 17 17 16 16 15 15 14 13 13 13 13 14 14 11 12 10 12 6 8 7 7 4 5 7 8 10 11 12 13 15 9 5 7 7 7 8 9 8 10 6 7 6 5 10 11 12 14 15 14 15 20 14 15 20 22 14 12 11 6 9 11 11 15 14 13 15 15 15 10 7 17 10 12
17 17 17 16 17 16 16 16 16 17 17 17 17 17 17 17 17 17 17 16 15 14 12 12 12 12 14 13 12 9 8 8 7 7 7 6 6 5 6 10 10 10 12 13 10 10 9 9 8 8 7 8 11 9 10 11 10 7 10 11 12 12 14 18 16 20 12 16 18 11 8 11 9 10 10 11 11 10 10 13 13 16 16 17 1 15 12 9
18 18 18 17 18 16 16 17 17 17 17 17 17 17 17 17 18 17 16 15 15 14 12 10 10 11 13 11 11 8 6 3 4 7 8 6 7 7 8 9 12 11 12 12 12 7 6 7 8 6 7 8 9 8 10 12 4 7 9 13 14 15 16 13 14 13 14 13 15 9 10 11 13 13 13 14 15 14 12 14 21 15 14 13 4 7 13 13
19 18 18 18 18 17 17 17 17 17 18 17 17 18 17 19 17 17 16 15 15 14 13 10 9 9 11 13 8 8 9 2 6 8 8 8 7 6 10 10 11 12 13 15 10 8 4 8 6 8 8 9 12 8 9 2 7 7 10 13 17 18 6 11 12 14 13 13 8 11 15 12 12 15 9 15 17 15 18 19 18 19 16 15 8 8 9 3
19 19 18 18 18 18 17 17 17 18 18 18 18 18 18 18 18 16 16 15 15 14 12 9 7 7 7 9 6 7 10 4 8 12 11 10 10 10 10 10 10 11 11 4 4 7 3 8 8 7 7 7 6 4 4 5 5 10 11 13 16 14 8 8 11 11 12 12 7 8 12 15 14 15 14 18 16 13 11 15 15 19 18 16 7 6 6 6
19 19 19 18 18 19 18 18 17 17 18 18 18 18 19 18 16 16 15 14 14 14 12 9 7 6 3 4 8 9 3 4 4 3 13 11 10 10 12 11 14 11 5 6 2 6 7 6 6 6 9 7 8 7 9 7 9 10 13 14 12 9 8 8 8 9 11 8 7 9 13 13 14 15 17 15 14 13 14 16 14 10 18 16 2 6 7 5
20 20 19 19 19 19 19 18 18 18 18 18 18 18 19 17 16 15 14 14 14 14 11 7 7 5 7 6 8 9 5 3 5 6 3 1 3 5 7 9 3 8 8 2 6 7 6 5 8 6 8 10 8 10 8 5 9 9 10 10 10 11 10 10 12 9 7 9 10 13 13 12 13 10 11 8 15 14 15 11 13 12 11 10 9 8 6 4
20 20 19 19 19 19 19 19 18 18 18 18 18 18 18 17 15 14 13 13 14 13 10 6 3 6 7 10 9 4 1 9 4 3 5 5 6 7 6 2 3 7 8 4 8 4 5 8 7 7 7 5 5 8 7 8 7 8 11 11 12 12 12 11 12 11 4 8 9 11 12 12 13 12 11 11 13 12 9 9 8 8 9 9 11 9 7 5
20 20 20 19 19 19 19 19 19 18 19 18 18 18 17 16 15 13 13 12 13 12 8 4 2 4 8 9 10 4 4 4 1 5 3 4 5 1 4 4 5 6 7 9 6 3 5 8 7 7 8 7 8 8 8 4 4 8 9 10 11 13 12 10 12 11 9 10 11 5 9 13 11 14 13 17 2 10 1 7 8 10 10 9 9 8 5 6
20 20 20 20 20 20 19 19 19 19 18 18 17 16 16 15 14 12 12 12 11 7 5 1 5 5 7 10 6 3 2 3 6 3 5 3 7 5 4 1 5 5 5 8 9 6 2 6 7 10 9 9 8 7 7 9 7 10 11 10 11 12 11 14 8 9 7 4 2 2 9 11 14 15 16 2 12 4 3 8 10 10 10 12 12 7 3 3
21 21 21 20 20 20 20 20 20 19 18 18 16 16 15 14 13 12 12 12 13 12 6 3 5 7 7 8 6 4 3 3 4 9 2 7 10 7 7 4 3 5 4 5 9 7 8 5 8 10 8 10 8 7 10 6 7 9 9 8 8 8 8 8 3 8 9 6 7 6 9 9 17 16 9 5 7 2 4 6 8 9 7 6 8 6 7 8
22 22 21 21 21 21 21 21 20 19 18 18 17 16 14 13 11 12 12 12 13 9 9 5 6 5 7 4 4 5 4 7 9 1 2 6 4 9 4 3 7 4 4 6 6 7 6 7 8 9 9 10 9 8 8 7 5 9 8 7 9 8 4 6 2 6 10 10 9 8 9 8 9 7 10 4 4 4 4 4 2 6 6 5 4 5 7 6
23 22 22 21 22 22 22 21 20 19 19 17 18 17 15 11 9 10 12 12 15 8 7 7 8 8 10 4 6 7 6 8 3 3 4 8 4 8 7 7 6 5 5 7 3 4 5 6 10 8 11 8 8 7 8 6 8 9 7 7 9 4 2 6 12 6 7 10 3 3 8 10 3 5 5 6 3 9 3 2 4 7 7 7 3 3 6 8
24 23 23 22 22 22 22 21 19 20 18 18 17 16 11 11 11 10 12 12 7 5 4 6 10 8 9 7 3 9 5 4 4 8 4 4 3 7 7 8 8 8 9 6 7 5 6 9 6 9 7 7 7 9 8 6 6 6 9 8 5 9 5 6 8 10 9 9 9 8 9 9 6 11 11 9 6 2 5 6 5 4 5 8 7 6 5 6
24 24 23 23 23 23 22 21 20 19 18 20 17 13 11 8 6 11 14 8 6 7 8 10 10 9 9 7 7 3 5 8 2 6 3 6 3 6 7 8 5 6 8 9 10 11 6 8 7 8 6 9 6 6 5 6 7 2 5 7 4 7 10 9 5 3 7 8 7 7 8 10 11 10 6 5 9 5 0 5 7 9 9 8 8 6 6 5
23 24 23 23 23 23 23 21 20 18 17 21 22 15 11 10 7 8 9 6 6 6 6 6 8 6 9 2 2 7 1 7 6 7 10 12 4 5 6 5 5 7 7 9 6 12 7 7 7 7 6 6 10 6 8 10 12 11 10 9 8 8 5 8 6 9 11 10 9 8 9 10 11 11 13 13 5 4 7 6 6 7 7 10 9 9 7 3
24 24 24 23 23 23 22 22 20 18 16 15 10 4 4 5 5 5 10 11 11 10 10 8 7 7 10 1 4 6 5 5 8 10 9 4 7 10 12 9 10 11 10 10 4 11 5 7 7 6 6 9 9 8 10 11 10 11 11 10 11 10 10 9 11 7 8 10 9 10 12 14 14 13 13 11 5 5 8 7 7 9 7 4 8 9 9 9
23 25 24 24 23 23 22 23 20 18 13 9 10 7 5 10 10 5 9 10 12 4 6 8 6 9 8 8 6 7 8 9 8 2 6 5 11 10 9 8 9 10 12 11 6 5 1 7 8 6 6 6 8 9 10 10 10 11 11 11 10 9 9 6 7 8 11 9 7 8 9 11 11 10 8 9 10 10 7 6 4 5 6 5 7 9 8 7
24 23 25 24 24 23 23 21 22 18 16 7 5 7 8 8 6 7 7 8 9 8 7 6 4 10 4 3 6 6 6 9 13 6 5 2 6 8 5 4 9 9 5 6 7 8 7 7 5 10 8 6 8 9 8 9 10 9 8 9 9 6 12 15 11 7 10 7 7 8 12 10 11 10 9 11 11 7 1 7 8 4 4 5 7 8 10 9
23 24 24 24 22 23 22 21 19 20 8 4 6 7 9 9 7 5 5 8 14 10 10 9 11 6 2 3 5 5 7 7 9 10 3 2 9 9 9 7 8 9 11 6 8 7 10 7 9 8 5 7 8 9 9 9 8 7 7 7 8 5 6 7 8 14 8 6 9 10 9 8 9 9 8 6 3 6 8 6 6 3 3 4 6 8 7 8
23 25 24 23 24 22 23 21 21 10 6 7 5 8 7 7 7 6 9 7 9 9 10 8 6 3 4 6 7 8 7 6 4 4 10 3 5 9 9 9 10 8 9 10 9 8 11 4 1 5 7 9 9 9 9 7 7 8 9 8 8 7 11 11 4 7 8 8 8 11 10 9 7 6 6 4 6 5 7 8 6 6 5 5 2 2 4 4
25 24 23 24 23 23 21 21 7 3 5 8 5 10 8 6 5 6 6 8 9 11 8 4 3 6 2 2 5 7 6 9 12 12 8 3 8 6 8 8 7 8 10 8 2 7 10 8 3 8 8 7 10 9 9 6 6 7 8 7 9 10 9 10 10 9 7 7 5 3 6 6 8 8 7 4 4 7 7 7 6 4 2 3 4 4 6 4
22 24 23 22 23 24 21 5 4 8 10 5 8 8 8 6 6 6 5 5 7 2 8 8 4 3 4 5 5 6 9 10 4 2 3 5 6 9 6 9 6 9 9 7 6 6 6 4 2 7 10 8 8 8 5 4 7 7 3 7 10 13 12 11 11 10 8 9 2 6 9 4 2 4 3 2 4 11 6 3 4 4 5 8 7 6 6 9
22 23 22 22 20 22 9 4 9 13 6 5 9 8 7 6 6 5 3 4 7 7 7 7 6 1 5 2 5 4 9 6 2 4 6 7 7 1 9 10 9 10 6 4 2 5 4 6 5 5 8 9 6 6 3 3 6 7 4 4 8 11 12 11 11 10 10 11 2 4 7 7 4 4 11 10 11 7 5 3 3 4 5 6 5 5 6 7
22 22 21 20 19 8 5 8 11 8 8 7 7 7 6 5 4 3 4 3 2 5 4 7 4 4 6 4 1 8 8 11 9 6 2 2 2 7 9 10 11 11 5 1 6 4 5 7 5 8 8 8 5 3 6 5 5 8 11 11 9 10 10 11 10 9 9 8 8 5 13 10 4 7 7 8 9 6 3 3 6 6 3 4 5 4 1 4
20 19 21 21 22 19 6 5 8 8 7 7 6 7 5 5 5 4 3 5 3 3 2 2 1 4 5 7 10 6 8 3 8 6 6 5 8 7 8 5 10 6 8 6 8 7 7 6 7 7 8 6 5 7 6 6 7 6 9 9 9 10 11 10 9 9 6 6 7 8 3 5 4 2 6 10 3 2 8 2 3 3 5 5 5 7 10 9
19 18 19 19 18 4 4 5 7 5 6 6 6 6 3 4 4 4 2 5 1 3 2 4 6 1 2 7 8 11 6 2 3 5 2 8 10 10 9 8 9 7 9 8 10 3 8 2 4 7 7 7 7 8 8 6 8 8 11 11 11 9 8 10 9 8 7 8 8 9 9 8 4 5 1 4 3 4 5 3 3 2 4 4 3 6 8 10
21 18 16 14 6 6 8 7 2 5 5 5 7 6 4 4 4 2 4 2 3 5 3 3 3 2 5 5 8 8 9 5 6 3 7 8 7 9 6 8 7 8 6 9 8 5 6 3 5 5 5 7 7 11 10 10 10 10 7 8 9 1 3 5 3 6 7 7 3 2 9 10 8 5 4 1 5 1 2 1 3 3 5 5 5 2 6 8
25 21 17 8 8 8 5 6 9 6 6 6 5 5 5 3 5 4 2 6 8 5 3 3 1 5 7 4 5 5 6 8 4 5 8 6 6 6 9 5 2 7 5 5 6 2 9 8 4 8 6 6 9 9 7 6 9 10 9 7 4 2 2 2 2 2 6 6 4 8 12 11 1 6 8 11 8 5 2 5 5 3 3 2 7 3 8 8
27 22 21 13 9 6 10 7 6 6 4 5 5 4 5 3 4 6 6 5 2 5 5 5 6 7 6 9 7 4 4 7 5 8 4 7 8 8 5 4 5 4 5 3 6 6 6 5 9 5 2 6 8 8 4 6 3 6 7 7 7 5 2 4 4 2 4 6 7 8 14 3 5 8 8 7 7 5 5 6 2 2 3 6 6 14 4 9
28 23 9 4 6 8 7 6 4 5 7 5 6 4 4 4 4 8 7 7 6 2 5 1 6 5 5 6 4 5 6 3 2 5 3 4 5 6 3 5 4 6 9 7 9 7 5 5 9 8 5 3 7 5 6 8 9 7 8 8 7 6 5 7 5 2 3 3 8 11 10 6 9 4 8 7 7 6 5 5 4 3 7 4 4 5 12 12
31 21 8 7 7 9 10 8 3 2 5 6 6 5 4 6 8 7 6 5 4 4 8 5 7 8 7 9 3 2 2 1 6 4 7 7 6 6 6 6 4 4 3 5 1 4 8 9 3 4 6 1 8 4 6 7 9 7 5 7 4 4 4 8 7 7 7 6 5 5 4 4 3 10 5 5 8 4 5 2 2 4 3 6 6 8 8 10
19 3 6 4 6 7 8 5 3 3 4 7 6 5 6 6 6 5 4 5 6 7 9 11 8 8 8 7 9 6 4 5 4 6 6 8 4 7 9 6 1 11 6 5 5 5 6 5 9 4 8 7 7 4 6 3 4 5 7 5 6 4 7 4 6 3 4 3 5 1 3 7 9 9 7 7 7 6 5 1 3 4 5 5 5 5 8 6
7 9 6 8 9 6 3 2 3 3 5 6 6 6 5 6 8 6 4 7 5 6 6 6 3 3 6 3 2 3 7 5 4 5 4 5 6 6 4 2 4 3 4 5 6 7 7 7 7 10 9 5 5 5 8 9 5 7 6 2 10 4 6 4 5 2 3 4 2 1 5 4 7 4 4 5 2 5 3 4 4 4 4 5 6 8 10 10
9 7 9 11 5 5 0 1 2 4 5 7 7 9 9 10 6 5 4 6 5 3 7 4 4 3 5 5 2 5 5 3 2 4 8 6 0 6 1 6 4 8 7 3 4 4 7 7 7 8 9 7 3 5 10 8 8 8 6 5 7 1 3 1 1 4 4 5 4 3 5 2 4 1 2 5 1 1 4 3 4 5 6 5 7 9 9 11
6 5 5 4 6 2 4 3 3 4 6 8 8 8 4 7 5 6 6 5 2 5 5 2 3 2 3 5 7 8 8 6 5 6 5 4 4 5 8 12 3 5 4 4 5 5 6 7 7 8 7 1 5 4 6 4 6 10 7 7 4 5 5 4 1 5 4 6 4 4 2 1 2 2 8 8 3 2 3 4 4 4 6 10 6 6 9 9
7 6 2 2 4 1 5 3 4 5 5 5 7 7 1 8 6 1 5 5 4 4 2 5 5 7 4 6 8 7 8 9 6 7 5 3 6 11 5 4 8 8 7 4 8 6 6 4 7 6 8 5 7 1 4 6 6 5 3 6 4 6 4 6 5 6 5 5 5 5 7 2 2 7 4 1 2 3 2 4 4 5 6 6 7 8 8 9
5 4 1 2 3 2 3 4 4 5 6 7 11 7 9 6 8 3 3 2 4 4 6 4 5 5 6 7 8 7 7 6 7 6 4 9 5 1 4 4 6 8 8 9 8 7 4 6 8 7 7 7 8 1 5 8 6 6 6 6 7 7 6 4 7 3 5 3 3 6 7 2 4 2 2 3 3 2 5 5 5 6 7 8 7 7 7 7
4 6 1 4 3 4 3 5 4 4 6 7 6 6 2 2 7 8 4 6 2 4 3 5 5 6 6 6 7 8 7 8 8 7 4 6 4 6 4 1 2 4 6 5 8 10 5 6 7 7 7 9 10 7 4 6 7 9 7 7 5 5 5 4 7 5 6 7 8 8 8 1 2 2 2 1 2 3 2 3 5 6 6 6 8 8 8 9
5 8 9 3 3 4 3 5 6 5 5 7 9 11 10 7 7 8 6 3 6 1 5 5 4 5 4 2 5 6 7 8 9 7 8 8 7 10 13 8 6 6 5 6 11 7 8 4 5 9 10 11 13 6 2 3 7 10 8 8 7 6 6 6 6 4 6 8 6 5 6 0 4 3 2 3 3 1 3 6 4 4 6 8 7 8 9 8
8 9 8 4 2 4 2 2 2 4 5 7 6 7 7 8 9 9 8 4 5 3 4 5 7 2 7 6 6 8 5 5 4 7 6 4 5 10 16 4 6 3 4 4 5 4 4 1 3 6 6 7 4 3 4 2 4 4 7 8 7 8 9 8 9 7 8 8 7 6 8 1 3 4 4 2 6 5 4 4 4 5 4 7 6 6 6 9
9 8 9 5 5 4 5 1 3 3 5 6 7 9 9 6 3 7 9 9 5 5 6 5 5 4 7 5 9 8 7 7 8 10 11 9 8 4 7 4 3 4 6 2 3 6 5 6 6 6 7 7 5 4 3 3 2 2 4 10 9 10 11 9 7 5 7 7 8 5 7 2 8 4 5 6 4 4 2 1 4 5 5 7 7 4 6 8
4 5 6 6 6 3 5 2 3 2 4 5 4 5 9 9 9 7 9 9 10 6 3 6 7 8 8 7 7 8 10 8 8 5 7 6 7 5 7 6 7 8 9 10 5 4 5 7 8 7 7 8 9 10 9 9 9 10 10 11 12 10 10 9 8 8 8 7 7 8 7 10 9 7 4 6 5 4 4 3 5 4 8 7 5 5 5 7
6 5 4 4 7 6 6 4 6 4 3 4 2 4 7 8 10 9 3 4 6 2 5 5 5 5 4 6 7 9 9 10 8 10 10 12 9 9 11 13 13 13 11 8 5 3 6 8 10 7 7 12 14 15 14 11 13 13 13 13 13 12 11 11 8 10 8 8 10 6 7 7 8 8 10 10 5 4 4 5 6 6 6 8 6 5 7 8
5 5 8 6 3 5 7 3 7 2 6 4 4 2 6 8 9 7 9 8 9 8 5 4 4 5 5 5 7 5 9 10 9 7 8 9 10 9 11 10 9 7 10 6 2 5 6 6 9 9 12 13 14 14 14 13 13 13 13 14 15 13 11 12 13 14 13 9 10 11 11 11 11 9 5 7 4 4 5 6 6 9 10 10 10 9 8 9
7 7 6 9 5 7 8 8 4 5 6 5 5 3 8 9 8 7 6 8 8 7 7 5 6 8 9 8 7 7 7 7 5 8 7 8 8 7 7 9 10 3 5 6 5 5 2 6 10 11 12 13 13 15 13 14 13 13 13 14 13 14 14 13 13 14 13 13 15 14 13 13 10 9 7 5 4 5 5 5 7 10 9 9 9 8 9 10
6 7 7 9 8 10 11 8 5 6 8 5 3 6 6 5 7 7 6 6 5 8 8 10 9 7 8 9 8 8 9 8 10 11 9 10 10 8 8 8 7 10 11 7 2 4 4 3 7 9 10 12 13 14 14 12 12 13 15 15 14 14 14 13 12 13 13 14 14 15 15 12 2 6 5 3 4 6 7 7 10 9 9 8 8 9 10 10
5 5 5 8 9 7 9 7 6 8 7 6 6 7 8 6 8 5 7 6 7 8 5 7 9 8 6 9 10 10 9 9 9 11 11 10 10 8 7 2 3 7 10 8 4 4 5 6 8 9 8 11 10 12 10 10 11 14 15 15 15 14 13 11 10 10 10 11 11 8 11 7 6 1 3 6 7 7 7 8 8 7 6 7 9 9 9 10
6 5 5 5 7 7 10 9 8 6 5 6 3 5 1 6 7 7 6 7 11 10 6 7 8 8 8 9 10 10 10 11 12 11 11 11 11 10 11 12 11 10 7 9 7 6 5 6 5 7 9 8 11 11 13 12 12 11 9 4 6 6 7 8 9 10 10 10 9 7 6 5 6 7 9 8 6 7 6 6 6 8 6 5 8 9 10 11
Wind_Direction
354 352 351 349 346 342 341 340 335 333 331 330 328 327 328 326 325 319 318 315 314 314 314 311 312 311 310 316 326 327 325 307 293 266 179 58 32 326 323 310 295 297 308 296 279 274 263 234 225 212 236 230 219 233 242 240 242 248 227 234 248 258 255 258 262 259 273 299 298 280 290 286 262 229 229 222 259 258 265 259 267 271 272 242 144 129 144 151
354 352 349 347 344 341 340 338 335 332 331 329 328 327 325 323 323 318 318 316 315 312 312 313 309 310 312 315 324 329 317 297 282 308 66 78 60 323 288 282 285 286 312 294 285 256 257 245 224 210 235 236 216 241 205 228 228 226 248 244 252 246 263 278 280 285 294 274 273 291 294 280 270 304 312 259 219 249 256 261 255 273 262 234 208 132 140 126
354 351 348 344 342 340 338 336 334 332 331 328 327 325 322 320 321 319 316 314 311 310 308 308 310 310 311 319 321 314 304 289 267 140 101 123 149 241 264 271 274 281 285 294 305 310 304 318 317 294 235 261 224 246 193 260 185 218 249 260 260 262 268 270 276 279 276 273 266 280 274 274 277 226 265 279 285 272 286 263 225 228 245 245 212 146 125 128
354 350 345 344 342 338 337 336 334 331 329 329 326 323 321 320 320 318 315 312 308 307 306 307 310 312 312 312 326 315 290 281 270 102 113 174 223 213 263 267 270 277 283 276 263 288 296 302 288 280 278 260 250 228 229 206 245 209 228 250 271 282 282 265 253 248 255 313 294 254 310 301 301 244 239 234 241 237 243 286 322 309 297 289 267 125 140 129
352 350 347 343 341 337 335 335 331 329 328 327 325 321 320 319 318 316 313 310 307 304 305 307 310 314 313 313 311 296 302 278 86 98 108 151 200 234 256 267 265 275 281 295 296 259 264 272 254 251 260 271 265 214 211 266 229 254 270 274 266 260 254 264 285 322 332 309 308 328 273 260 313 305 263 270 271 265 250 252 222 224 245 266 246 138 123 142
351 349 346 344 340 336 335 334 331 328 327 324 321 320 318 318 319 314 311 309 305 303 302 307 310 311 312 312 309 285 272 4 114 113 145 176 182 233 246 258 267 273 276 280 283 301 259 235 248 231 241 243 252 250 229 223 209 231 233 256 262 271 278 288 311 320 317 329 344 322 279 312 316 306 312 295 285 295 287 281 288 304 309 299 28 91 155 159
350 349 345 343 339 336 334 333 330 328 326 322 318 318 317 319 318 313 309 307 303 300 300 306 311 310 309 300 263 250 245 36 137 135 143 190 202 204 241 251 258 264 266 269 253 274 275 286 237 251 253 262 263 266 292 338 300 276 289 296 283 287 285 336 322 302 300 329 305 320 328 307 302 290 281 264 267 270 275 276 306 306 296 317 351 346 338 75
349 348 345 342 340 336 333 332 330 327 324 321 319 316 319 319 315 310 306 302 299 297 298 307 312 306 329 300 272 236 236 67 115 154 158 177 209 210 220 245 262 263 272 326 331 295 350 277 306 348 267 273 4 318 9 349 290 279 275 258 247 239 253 271 283 291 297 280 284 270 278 270 270 266 265 265 273 275 251 271 263 274 283 287 296 324 336 322
349 347 345 342 339 336 334 331 328 326 324 320 318 317 319 315 311 306 302 297 294 292 295 307 303 308 231 278 270 290 92 72 44 136 159 189 212 229 220 239 223 265 326 276 340 291 285 300 241 5 330 304 351 313 282 265 247 244 241 259 310 334 298 277 278 251 249 276 292 271 247 254 258 266 266 271 275 283 277 265 282 241 258 269 11 275 231 259
348 346 344 342 339 336 334 331 326 324 322 319 316 317 317 312 308 306 300 294 290 288 291 302 305 304 278 250 278 269 79 309 160 119 129 314 281 254 248 286 14 294 285 239 250 247 318 354 310 324 288 276 263 262 292 284 295 342 306 306 307 299 300 271 251 265 269 250 241 235 246 254 248 239 251 242 265 269 277 288 259 274 304 313 302 293 306 345
347 345 343 342 338 336 333 329 326 323 321 318 317 315 313 310 307 303 299 293 288 286 289 293 340 294 286 278 283 319 220 252 20 215 119 235 238 269 325 345 352 286 283 277 273 15 315 277 349 285 267 327 325 259 218 262 303 311 309 302 285 273 263 267 284 280 245 260 266 270 276 268 265 264 257 266 234 226 250 255 271 294 279 294 287 280 298 277
347 345 343 340 338 335 332 328 326 323 320 318 316 314 311 308 305 299 298 295 289 284 285 293 238 275 275 281 260 36 281 70 293 337 242 223 247 285 243 267 293 281 296 292 307 85 307 306 314 279 284 7 260 310 283 253 220 291 299 283 265 255 247 238 242 238 230 244 241 284 274 257 246 238 249 239 276 69 293 289 311 302 296 287 291 301 310 309
346 345 342 340 337 336 331 328 325 322 319 316 312 313 310 306 301 297 294 298 281 282 287 266 252 245 284 295 80 55 305 252 179 223 273 276 273 192 219 253 237 269 289 296 292 330 9 292 270 274 271 282 302 292 14 295 291 291 257 251 269 267 253 228 191 260 240 285 76 106 256 261 237 228 234 105 111 126 205 227 234 248 261 253 247 252 243 353
347 344 342 339 337 334 331 328 325 322 319 313 311 312 310 303 295 293 289 275 284 289 284 251 265 267 277 275 105 100 239 327 316 241 147 284 293 173 211 180 216 260 235 288 292 280 287 255 257 275 282 273 271 356 295 286 251 255 277 263 269 280 280 151 186 171 253 146 215 245 266 273 287 201 168 83 17 327 291 312 297 293 294 355 3 318 318 331
347 345 342 340 336 333 331 328 326 322 317 314 312 312 304 294 292 290 286 288 269 273 283 264 234 268 245 231 112 130 281 263 252 191 289 306 319 289 181 172 233 219 282 258 258 251 228 253 278 259 253 228 250 264 274 272 251 235 245 237 238 268 27 108 199 172 258 150 228 252 255 265 8 100 85 107 229 293 287 306 298 280 301 297 279 321 317 305
347 345 342 340 336 333 330 330 325 323 317 316 314 308 298 280 279 280 280 269 288 325 277 271 225 228 282 271 127 136 208 246 97 6 343 284 330 298 354 275 331 298 225 231 228 281 255 266 250 271 280 260 219 262 279 263 239 237 253 304 303 272 247 239 191 253 253 290 132 241 293 303 169 1 103 100 160 193 93 14 293 268 269 283 346 337 257 250
346 345 342 340 336 332 330 327 326 323 319 316 314 300 287 277 268 276 276 274 279 230 245 261 289 220 252 87 219 231 212 97 6 269 188 229 250 308 290 289 251 234 195 258 254 246 243 241 225 243 244 286 254 239 253 259 308 304 317 284 274 300 300 296 116 220 229 211 253 237 255 250 251 205 228 209 195 307 230 234 232 216 249 257 268 286 322 319
345 343 342 339 336 333 328 326 326 324 322 317 307 288 283 276 305 298 274 227 236 242 233 258 272 304 223 266 271 27 32 274 109 315 323 307 309 273 254 268 274 260 275 248 213 247 207 242 223 271 230 225 260 260 250 274 260 314 251 270 281 259 271 266 263 162 263 183 215 257 274 286 291 294 263 238 182 134 354 286 290 301 310 314 298 259 249 236
344 343 341 339 335 333 328 324 325 324 328 318 293 273 247 250 259 244 262 226 209 209 225 188 225 249 354 355 21 270 48 38 295 253 238 225 243 254 280 274 280 287 244 250 213 224 193 250 246 254 268 330 291 274 276 302 320 308 312 302 295 288 277 276 230 230 191 255 268 240 251 264 273 263 243 231 200 219 252 243 268 279 256 229 240 257 263 288
343 341 340 338 335 331 328 322 323 326 339 334 327 291 226 236 195 214 220 240 239 270 329 320 311 309 280 189 339 7 297 279 251 227 288 186 252 264 254 242 248 230 254 248 189 216 260 261 280 260 263 244 248 301 309 312 306 301 283 272 267 263 264 250 250 262 253 239 218 252 254 253 254 261 280 301 342 262 248 276 261 255 271 359 4 14 16 16
339 341 339 337 335 331 327 322 320 323 331 307 292 287 308 16 339 351 343 266 224 316 303 326 316 314 316 346 303 318 302 204 257 187 212 17 274 267 250 237 234 242 228 255 291 348 323 261 248 294 302 341 318 303 302 291 275 271 270 268 275 284 279 321 325 291 265 255 272 252 270 269 262 262 267 260 241 256 258 248 279 47 11 16 15 15 17 6
338 338 337 336 333 332 324 322 317 319 312 266 273 276 333 39 2 324 320 304 284 217 233 248 341 270 183 289 316 297 256 277 207 219 126 300 318 290 86 265 275 277 250 211 229 241 246 259 312 295 298 317 298 285 274 279 285 273 274 282 290 298 350 317 287 297 289 249 255 283 274 267 260 251 236 230 243 246 205 83 74 29 64 18 7 20 10 2
336 335 335 332 331 328 326 315 319 314 312 264 245 299 6 332 327 328 271 285 281 252 223 240 235 241 243 153 243 150 280 261 300 159 142 13 293 277 332 294 271 285 312 318 253 228 235 245 253 256 303 306 295 280 262 259 273 283 287 306 276 310 283 271 271 267 241 232 260 256 265 266 277 275 260 268 254 127 87 137 117 118 315 66 51 16 11 355
335 335 332 330 329 330 323 320 305 291 231 278 16 8 345 327 325 321 311 274 292 276 216 218 250 282 295 310 80 283 279 294 302 171 111 287 279 337 292 263 273 271 259 253 251 303 299 136 223 282 288 280 292 301 298 276 278 278 262 256 295 227 219 237 321 255 303 279 272 268 269 276 271 302 322 189 145 142 164 135 133 118 111 114 80 66 5 356
333 334 331 328 329 325 322 321 302 303 344 271 20 4 336 332 321 328 310 290 257 254 189 165 238 227 134 195 238 254 254 267 249 281 334 326 289 279 269 299 283 255 238 265 11 265 266 41 8 265 266 278 263 262 251 259 281 297 288 285 274 305 318 309 282 285 267 272 248 48 296 287 11 324 259 144 180 134 122 128 133 100 159 78 74 24 320 331
330 329 329 328 327 326 309 301 6 348 294 15 356 353 325 330 353 320 290 271 282 130 109 218 149 164 356 216 198 256 304 277 90 163 48 331 318 268 293 259 228 276 339 329 280 291 297 75 282 308 297 277 256 272 324 356 287 283 360 11 309 301 300 298 290 270 260 259 270 278 268 243 1 216 187 149 232 122 138 216 81 112 46 39 15 8 350 329
330 328 327 327 327 334 321 0 328 297 318 40 2 336 339 321 360 312 268 225 258 144 212 98 220 132 231 63 267 287 252 69 355 257 247 156 283 151 271 286 263 215 218 333 284 285 267 200 283 254 256 255 290 324 276 283 300 284 56 307 319 311 299 288 288 278 271 292 80 273 253 260 177 233 219 169 221 135 137 42 188 77 48 33 26 357 349 335
327 327 324 323 322 336 293 301 308 342 11 356 333 335 333 339 309 254 256 293 244 166 219 131 20 134 250 146 129 262 318 315 272 161 222 121 229 247 249 277 291 314 11 123 270 152 263 286 234 266 262 278 258 270 314 332 291 297 319 336 320 313 306 284 273 281 277 275 250 210 254 254 297 190 260 200 159 202 51 204 53 50 32 31 6 342 46 348
322 324 326 321 319 299 245 245 301 316 353 343 342 338 339 331 259 272 278 276 103 198 48 131 164 226 237 235 231 246 272 287 287 113 216 223 223 301 273 292 321 311 285 274 277 297 202 243 328 310 297 286 327 315 326 315 287 295 337 312 291 276 268 270 278 272 291 286 265 276 207 275 95 235 152 14 32 330 171 191 77 37 28 11 10 341 358 355
321 323 325 327 319 201 186 207 244 279 328 347 339 306 335 265 236 222 204 260 139 166 199 94 224 30 348 289 276 179 274 234 214 287 239 282 162 206 255 271 274 275 266 229 251 298 38 32 315 284 274 331 322 305 296 266 272 308 282 280 273 270 294 308 298 297 284 239 256 246 263 233 188 157 141 183 119 159 264 123 136 46 55 26 3 9 16 6
320 320 321 327 290 343 326 264 87 346 343 353 332 307 262 236 240 261 231 336 248 78 219 50 54 217 293 332 300 147 232 174 285 291 258 220 239 218 231 220 209 259 251 273 228 210 234 172 241 230 252 283 292 283 257 238 248 270 276 276 290 333 328 237 241 267 248 261 262 333 261 229 249 155 168 155 202 249 151 119 36 1 43 11 319 69 57 30
318 318 312 304 271 320 281 311 349 344 353 349 319 272 227 266 224 234 278 135 252 72 342 12 29 17 311 267 271 285 341 309 236 286 287 281 231 223 206 240 266 294 276 252 246 229 273 263 260 237 167 279 285 286 299 243 240 252 276 253 275 353 306 248 195 254 247 268 289 255 237 238 310 136 136 186 165 134 13 32 45 14 351 222 285 16 86 44
316 314 309 275 242 235 246 279 333 331 331 307 292 253 251 270 267 221 235 279 38 325 72 268 335 304 306 287 270 40 341 287 58 277 285 280 270 251 112 291 323 299 305 279 279 259 249 226 234 253 261 223 266 288 329 280 300 313 293 311 312 307 294 277 263 211 322 322 300 253 256 265 144 138 148 142 136 127 113 101 93 45 327 1 328 322 61 62
313 314 311 266 211 231 272 317 297 316 296 283 269 252 255 282 273 347 324 10 51 9 359 346 307 291 246 264 338 301 303 223 281 316 298 278 256 291 258 159 210 225 246 285 280 299 294 227 219 221 244 100 263 280 315 309 307 291 300 291 320 325 324 318 329 333 267 211 228 267 276 161 156 143 132 164 130 116 116 120 98 81 314 47 307 355 1 37
311 301 243 257 247 247 251 255 275 294 290 272 260 262 262 262 287 331 323 7 316 358 323 348 276 300 258 224 226 177 188 355 190 272 257 250 226 249 246 144 175 249 276 279 26 340 278 269 126 216 343 237 281 323 311 304 297 281 313 298 339 308 310 281 331 309 320 322 312 223 241 49 116 176 156 160 136 128 142 90 99 56 44 29 339 15 359 10
304 339 170 251 237 236 219 219 181 231 273 275 268 267 260 285 289 353 15 324 351 355 345 313 277 259 294 161 235 156 153 300 1 303 278 243 354 323 358 315 19 48 335 306 345 300 316 303 85 159 188 247 269 354 283 356 289 356 315 338 313 337 295 307 275 315 338 263 261 55 252 85 120 182 159 175 146 141 104 49 57 45 9 26 16 358 2 348
322 312 261 256 247 221 186 225 158 226 262 275 285 272 288 303 24 346 40 347 338 317 310 311 10 335 309 313 270 118 186 248 245 261 308 58 253 195 240 346 36 307 305 335 309 273 296 302 296 270 251 210 252 286 302 271 268 285 302 277 272 275 354 303 309 302 270 288 292 353 270 194 182 159 359 358 199 42 49 21 25 38 4 30 1 1 357 350
312 292 281 272 284 93 35 172 188 249 269 282 269 272 284 280 45 41 11 340 312 339 291 289 328 282 285 321 284 6 2 320 1 260 293 228 212 31 39 273 129 321 8 277 280 317 331 293 262 273 294 113 161 261 259 254 237 275 301 333 293 306 297 190 310 289 325 293 308 262 275 184 269 61 70 289 240 279 38 10 13 13 340 360 17 5 342 347
269 288 290 66 110 61 117 111 227 265 280 280 280 278 359 323 40 33 24 334 270 323 284 35 284 289 341 272 321 307 291 281 334 316 309 48 308 60 288 8 156 133 161 331 273 302 300 293 288 279 264 296 266 260 281 297 284 253 276 265 219 277 295 295 232 300 300 291 325 269 265 178 116 161 205 234 51 10 11 20 1 12 340 9 22 347 338 347
290 290 286 97 105 88 132 176 260 257 256 260 283 288 165 269 76 41 67 5 328 311 307 325 337 307 293 299 321 300 303 285 301 304 298 290 262 143 269 162 291 307 15 318 294 299 282 231 284 301 316 326 271 189 286 300 297 265 261 299 280 266 321 295 285 290 295 302 274 309 309 149 172 215 227 28 62 31 31 23 1 360 337 23 342 349 334 343
302 268 262 309 0 355 155 239 256 270 278 275 247 295 332 351 326 20 96 40 290 215 297 302 308 297 313 304 280 303 300 297 295 285 294 294 307 290 126 17 21 318 327 303 268 268 253 278 278 297 264 241 272 160 206 246 277 280 294 291 293 293 291 296 284 263 299 281 299 305 302 49 157 66 354 22 41 355 48 13 0 351 354 9 332 337 343 346
296 278 142 224 124 233 260 276 266 263 258 277 336 325 302 214 290 292 273 160 273 319 88 301 274 281 285 284 304 295 290 292 288 289 290 281 121 261 94 281 75 2 321 290 297 46 354 330 300 285 278 285 282 295 290 297 287 288 290 284 297 303 309 283 287 304 297 279 297 277 296 309 180 210 291 57 357 359 41 9 349 331 356 329 332 335 344 346
271 286 333 253 135 272 259 275 272 265 285 316 325 312 346 311 313 312 302 346 294 253 290 268 313 301 268 327 318 293 308 297 291 282 298 290 296 9 141 110 110 304 287 276 269 45 322 273 282 262 263 258 248 225 267 265 299 291 269 270 278 273 276 285 284 326 300 302 287 296 280 120 175 161 216 169 196 240 349 3 337 334 329 329 338 340 336 334
314 298 293 163 206 216 262 266 312 331 324 340 326 303 304 300 307 301 291 282 257 270 256 250 258 267 303 298 282 283 303 292 269 276 266 310 296 17 304 350 104 255 280 6 333 34 290 202 262 294 282 261 213 31 263 281 338 326 315 304 311 297 286 287 292 281 276 273 301 307 281 9 230 200 195 290 344 355 324 348 327 319 331 316 349 345 328 321
293 270 244 233 185 226 262 313 297 303 331 334 359 335 327 294 291 304 314 293 312 291 307 307 333 275 260 257 269 273 265 256 284 288 285 281 277 252 289 60 122 303 247 339 17 332 284 299 299 276 283 285 252 234 342 319 279 202 235 271 269 270 277 291 274 280 279 287 282 265 281 290 179 213 333 295 283 295 345 303 317 322 326 322 338 2 326 328
308 320 331 289 169 223 257 166 254 266 306 338 12 331 328 321 321 321 299 302 278 270 259 316 302 325 308 310 304 305 295 279 262 281 279 289 291 294 307 212 222 245 183 137 207 289 282 281 272 269 275 281 291 313 311 315 296 290 293 283 276 270 274 269 275 270 266 297 292 269 261 282 289 298 291 324 353 358 356 7 334 343 312 323 352 340 348 325
312 277 318 311 328 258 271 231 238 237 260 28 317 345 317 320 315 303 342 288 327 33 289 286 319 299 307 321 317 296 281 277 272 270 277 283 289 297 296 294 289 287 133 149 172 281 260 265 260 266 267 272 284 287 293 291 288 288 287 283 283 276 262 259 257 262 283 301 273 269 290 304 299 321 336 320 355 356 339 353 343 334 316 318 336 334 335 325
275 309 337 25 292 307 326 329 13 323 300 290 272 310 291 311 307 300 316 296 315 331 324 288 259 248 275 309 310 302 307 312 305 292 291 277 284 298 300 283 282 107 161 262 225 214 267 269 279 286 280 279 277 281 276 270 263 268 277 281 280 278 272 267 262 262 268 260 271 291 309 300 298 302 305 314 13 346 338 352 345 306 324 345 332 338 320 323
313 336 318 20 319 305 291 331 328 298 291 276 291 285 278 270 280 299 303 307 314 297 325 301 283 313 327 320 312 298 298 304 307 318 312 308 293 307 287 306 290 193 254 261 285 337 326 269 268 257 273 275 278 277 282 284 288 286 282 275 269 272 274 270 267 266 260 260 269 283 278 268 289 317 318 349 352 327 333 334 312 323 347 332 329 323 328 327
335 348 323 334 308 294 286 278 290 288 272 263 251 269 287 275 278 303 304 302 308 301 302 294 309 314 316 307 300 296 309 293 298 303 312 305 299 277 274 266 287 307 298 281 191 176 217 267 302 302 293 285 284 284 278 289 309 292 285 281 281 280 274 264 264 265 271 269 272 276 286 286 260 266 308 336 324 323 319 328 336 341 329 332 315 323 329 334
319 327 318 307 308 301 305 272 251 269 272 268 263 263 261 279 291 300 287 295 290 291 328 296 314 329 327 306 303 296 318 320 302 286 287 278 276 278 280 289 286 292 300 274 218 171 202 270 284 285 286 282 282 286 293 289 283 286 288 284 279 271 269 271 268 270 261 274 276 278 276 270 293 3 310 313 319 324 331 330 340 323 341 321 313 324 327 326
322 329 322 305 283 296 295 299 290 279 266 283 323 295 252 261 267 288 298 282 258 254 280 338 348 337 317 315 303 317 319 296 294 295 291 292 282 272 256 257 256 261 272 290 291 270 208 262 283 296 289 285 287 292 295 315 304 285 276 305 346 329 312 312 302 294 286 286 276 273 272 282 322 336 314 324 329 319 339 337 325 325 6 340 327 330 325 325